Regional Weather Roundup
Issued by NWS Sioux Falls, SD

Home | Current Version | Previous Version | Graphics & Text | Print | Product List | Glossary Off
Versions: 1 2 3 4 5 6 7 8 9 10 11 12 13 14 15 16 17 18 19 20 21 22 23 24 25 26 27 28 29 30 31 32 33 34 35 36 37 38 39 40 41 42 43 44 45 46 47 48 49 50

000
ASUS43 KFSD 231010
RWRFSD

WEATHER ROUNDUP FOR SE SOUTH DAKOTA/SW MINNESOTA/NW IOWA
NATIONAL WEATHER SERVICE SIOUX FALLS SD
500 AM CDT SUN APR 23 2017

NOTE: "FAIR" INDICATES FEW OR NO CLOUDS BELOW 12,000 FEET WITH NO
SIGNIFICANT WEATHER AND OR OBSTRUCTIONS TO VISIBILITY.


SDZ038>040-050-052>070-231100-
SOUTHEAST SOUTH DAKOTA

CITY           SKY/WX    TMP DP  RH WIND       PRES   REMARKS
BROOKINGS      CLEAR     45  35  68 S7        30.07F
CHAMBERLAIN    CLEAR     48  36  63 S15       30.03F
HURON          CLEAR     45  37  73 S13       30.03F
MADISON        FAIR      48  32  53 SW16      30.07F
MITCHELL       CLEAR     49  36  61 S12       30.06F
SIOUX FALLS    CLEAR     50  35  56 SW8       30.09F
WINNER         FAIR      44  32  62 S14       30.05F
YANKTON        CLEAR     46  30  53 SW9       30.11F
$$

MNZ071-072-080-081-089-090-097-098-231100-
SOUTHWEST MINNESOTA

CITY           SKY/WX    TMP DP  RH WIND       PRES   REMARKS
FAIRMONT       CLEAR     47  36  65 SW10      30.11
JACKSON        CLEAR     48  32  53 SW10      30.12S
LUVERNE        CLEAR     41  32  70 S5        30.11F
MARSHALL       CLOUDY    43  39  86 N10       30.09R
MONTEVIDEO     CLEAR     39  36  87 N8        30.09S
PIPESTONE      PTCLDY    45  34  65 SW9       30.08F
REDWOOD FALLS  MOCLDY    48  36  63 W8        30.08R
TRACY          PTCLDY    50  37  62 SW14      30.08S
WINDOM         CLEAR     48  34  57 SW7       30.09F
WORTHINGTON    CLEAR     49  33  54 SW13      30.11F
$$

IAZ001>003-012>014-020>022-031-032-NEZ013-014-SDZ071-231100-
NORTHWEST IOWA

CITY           SKY/WX    TMP DP  RH WIND       PRES   REMARKS
CHEROKEE       CLEAR     33  33 100 CALM      30.15S
DENISON          N/A     37  34  87 SE3       30.17F
ESTHERVILLE    CLEAR     43  34  70 SW8       30.12S
LE MARS        CLEAR     39  36  87 S5        30.15S
ORANGE CITY    CLEAR     43  34  70 S5        30.13F
SHELDON        CLEAR     43  34  70 SW8       30.12S
SIOUX CITY     CLEAR     37  32  82 SE3       30.16R
SPENCER        CLEAR     37  33  85 SW6       30.13S
STORM LAKE     CLEAR     45  32  61 SW6       30.14F
$$

ABBREVIATIONS USED IN REMARKS
   TC - TEMPERATURE IN CELSIUS
  WCI - WIND CHILL INDEX
   HX - HEAT INDEX
  VSB - VISIBILITY





USA.gov is the U.S. government's official web portal to all federal, state and local government web resources and services.